Regional Weather Roundup
Issued by NWS State College, PA

Home | Current Version | Previous Version | Graphics & Text | Print | Product List | Glossary Off
Versions: 1 2 3 4 5 6 7 8 9 10 11 12 13 14 15 16 17 18 19 20 21 22 23 24 25 26 27 28 29 30 31 32 33 34 35 36 37 38 39 40 41 42 43 44 45 46 47 48 49 50

000
ASUS41 KCTP 271803
RWRCTP

REGIONAL WEATHER ROUNDUP
NATIONAL WEATHER SERVICE STATE COLLEGE PA
100 PM EST THU NOV 27 2014

Note: "fair" indicates few or no clouds below 12,000 feet with no
significant weather and/or obstructions to visibility.

* = STATION THAT DOES NOT REPORT PRECIPITATION /E.G. RAIN...SNOW...ETC/
    THUNDER OR FOG.

PAZ002>004-007>009-013>016-020>023-029>032-271900-
WESTERN PENNSYLVANIA

CITY           SKY/WX    TMP DP  RH WIND       PRES   REMARKS
ERIE           CLOUDY    35  27  72 NW9       30.07S
MEADVILLE      LGT SNOW  31  27  85 W8        30.04S VSB 3/4
FRANKLIN*      CLOUDY    32  25  74 NW5       30.04S
NEW CASTLE     LGT SNOW  33  30  89 W9        30.09S FOG
BEAVER COUNTY  NOT AVBL
BUTLER*        CLOUDY    32  28  86 CALM      30.06F
PITTSBURGH INT LGT SNOW  34  31  88 W9        30.07S FOG
PITTSBURGH     CLOUDY    34  26  72 VRB6      30.05S
INDIANA*       CLOUDY    34  30  86 W8        30.06S
LATROBE        PTSUNNY   36  27  69 W9        30.06S
WASHINGTON CO* CLOUDY    36  27  69 W14       30.09S
$$

PAZ004>006-010>012-017>019-024>028-033>037-041-042-045-046-049>053-271900-
CENTRAL PENNSYLVANIA

CITY           SKY/WX    TMP DP  RH WIND       PRES   REMARKS
BRADFORD       CLOUDY    31  19  61 NW6       29.96F
DUBOIS         CLOUDY    32  26  78 NW3       29.98S
CLEARFIELD     LGT SNOW  32  29  88 NW6       30.00S FOG
JOHNSTOWN      CLOUDY    29  24  82 W13       29.97S
ALTOONA        CLOUDY    34  25  69 NW14      30.00S
STATE COLLEGE  LGT SNOW  32  30  93 CALM      30.00F FOG
WILLIAMSPORT   PTSUNNY   35  25  66 W5        30.02S
SELINSGROVE    CLOUDY    36  27  69 N3        30.03F
FT INDIANTOWN  CLOUDY    35  27  70 VRB2      30.02F
CAPITAL CITY   CLOUDY    36  28  73 W7        30.04F
HARRISBURG     CLOUDY    36  27  69 NW9       30.03S
YORK           PTSUNNY   37  29  72 CALM      30.03S
$$

PAZ038>040-043-044-047-048-054-055-060>062-067>071-271900-
EASTERN PENNSYLVANIA

CITY           SKY/WX    TMP DP  RH WIND       PRES   REMARKS
SCRANTON       CLOUDY    33  26  75 W14       29.98F
MOUNT POCONO   LGT SNOW  29  23  78 NW9G17    29.91F
ALLENTOWN      PTSUNNY   37  26  64 NW10      30.00F
QUAKERTOWN*    CLOUDY    36  27  69 NW8       30.01S
READING        CLOUDY    37  27  67 NW9       30.01F
LANCASTER      CLOUDY    36  27  69 NW9       30.02F
COATESVILLE    MOCLDY    36  28  75 NW8       30.01S
POTTSTOWN      CLOUDY    36  27  69 NW9       30.02S
BLUE BELL      CLOUDY    37  30  75 W6        30.00S
DOYLESTOWN     CLOUDY    34  29  82 NW9       29.99F
WILLOW GROVE   NOT AVBL
NORTH PHILA    CLOUDY    40  29  64 NW8       30.02F
PHILADELPHIA   PTSUNNY   40  29  64 NW13      30.02F
$$



USA.gov is the U.S. government's official web portal to all federal, state and local government web resources and services.